timestamp,surface_pressure_avg,surface_temp_avg,battery_voltage,lat,long
2022-01-04 00:09:00+00:00,402.7546,3.6,12.65,47.84626,-54.09684
2022-01-04 00:19:00+00:00,401.223,3.4,12.65,47.84626,-54.09684
2022-01-04 00:29:00+00:00,397.718,3.39,12.65,47.84626,-54.09684
2022-01-04 00:39:00+00:00,398.7896,3.4,12.65,47.84626,-54.09684
2022-01-04 00:49:00+00:00,398.8746,3.3,12.65,47.84626,-54.09684
2022-01-04 00:59:00+00:00,399.7229,3.2,12.65,47.84626,-54.09684
2022-01-04 01:09:00+00:00,397.6979,3.0,12.65,47.84626,-54.09684
2022-01-04 01:19:00+00:00,388.3046,3.29,12.65,47.84626,-54.09684
2022-01-04 01:29:00+00:00,387.6696,3.44,12.65,47.84626,-54.09684
2022-01-04 01:39:00+00:00,382.043,3.5,12.65,47.84626,-54.09684
2022-01-04 01:49:00+00:00,376.7263,3.5,12.65,47.84626,-54.09684
2022-01-04 01:59:00+00:00,366.2797,3.58,12.65,47.84626,-54.09684
2022-01-04 02:09:00+00:00,358.8279,3.59,12.65,47.84626,-54.09684
2022-01-04 02:19:00+00:00,354.3563,3.6,12.65,47.84626,-54.09684
2022-01-04 02:29:00+00:00,348.8979,3.6,12.65,47.84626,-54.09684
2022-01-04 02:39:00+00:00,343.81800000000015,3.6,12.65,47.84626,-54.09684
2022-01-04 02:49:00+00:00,346.9046,3.6,12.65,47.84626,-54.09684
2022-01-04 02:59:00+00:00,344.968,3.6,12.65,47.84626,-54.09684
2022-01-04 03:09:00+00:00,333.6414,3.6,12.65,47.84626,-54.09684
2022-01-04 03:19:00+00:00,319.043,3.6,12.65,47.84626,-54.09684
2022-01-04 03:29:00+00:00,308.6697,3.6,12.65,47.84626,-54.09684
2022-01-04 03:39:00+00:00,295.1248,3.6,12.65,47.84626,-54.09684
2022-01-04 03:49:00+00:00,280.433,3.6,12.65,47.84626,-54.09684
2022-01-04 03:59:00+00:00,269.8848,3.59,12.65,47.84626,-54.09684
2022-01-04 04:09:00+00:00,252.8731,3.59,12.65,47.84626,-54.09684
2022-01-04 04:19:00+00:00,236.5031,3.57,12.57,47.84626,-54.09684
2022-01-04 04:29:00+00:00,233.0647,3.59,12.57,47.84626,-54.09684
2022-01-04 04:39:00+00:00,239.6998,3.59,12.57,47.84626,-54.09684
2022-01-04 04:49:00+00:00,238.6298,3.28,12.57,47.84626,-54.09684
2022-01-04 04:59:00+00:00,225.0414,3.01,12.57,47.84626,-54.09684
2022-01-04 05:09:00+00:00,219.5581,3.1,12.57,47.84626,-54.09684
2022-01-04 05:19:00+00:00,217.7664,3.4,12.57,47.84626,-54.09684
2022-01-04 05:29:00+00:00,205.7048,3.4,12.57,47.84626,-54.09684
2022-01-04 05:39:00+00:00,202.0148,3.4,12.57,47.84626,-54.09684
2022-01-04 05:49:00+00:00,208.4265,3.4,12.57,47.84626,-54.09684
2022-01-04 05:59:00+00:00,203.3481,3.5,12.57,47.84626,-54.09684
2022-01-04 06:09:00+00:00,199.2815,3.47,12.57,47.84626,-54.09684
2022-01-04 06:19:00+00:00,204.1214,3.4,12.57,47.84626,-54.09684
2022-01-04 06:29:00+00:00,209.4597,3.4,12.57,47.84626,-54.09684
2022-01-04 06:39:00+00:00,214.4631,3.4,12.57,47.84626,-54.09684
2022-01-04 06:49:00+00:00,217.9431,3.44,12.57,47.84626,-54.09684
2022-01-04 06:59:00+00:00,214.8231,3.5,12.57,47.84626,-54.09684
2022-01-04 07:09:00+00:00,210.3448,3.5,12.57,47.84626,-54.09684
2022-01-04 07:19:00+00:00,213.0547,3.48,12.57,47.84626,-54.09684
2022-01-04 07:29:00+00:00,215.8815,3.47,12.57,47.84626,-54.09684
2022-01-04 07:39:00+00:00,210.2231,3.4,12.57,47.84626,-54.09684
2022-01-04 07:49:00+00:00,208.5015,3.4,12.57,47.84626,-54.09684
2022-01-04 07:59:00+00:00,215.0348,3.4,12.57,47.84626,-54.09684
2022-01-04 08:09:00+00:00,221.0648,3.4,12.57,47.84626,-54.09684
2022-01-04 08:19:01+00:00,220.1698,3.43,12.57,47.84626,-54.09684
2022-01-04 08:29:01+00:00,223.3365,3.46,12.57,47.84626,-54.09684
2022-01-04 08:39:01+00:00,234.5964,3.47,12.57,47.84626,-54.09684
2022-01-04 08:49:01+00:00,239.5398,3.49,12.57,47.84626,-54.09684
2022-01-04 08:59:01+00:00,241.7197,3.49,12.57,47.84626,-54.09684
2022-01-04 09:09:01+00:00,249.3614,3.49,12.57,47.84626,-54.09684
2022-01-04 09:19:00+00:00,255.6464,3.47,12.57,47.84626,-54.09684
2022-01-04 09:29:00+00:00,266.9514,3.46,12.57,47.84626,-54.09684
2022-01-04 09:39:00+00:00,277.623,3.12,12.57,47.84626,-54.09684
2022-01-04 09:49:00+00:00,288.8864,3.4,12.57,47.84626,-54.09684
2022-01-04 09:59:00+00:00,291.5514,3.63,12.57,47.84626,-54.09684
2022-01-04 10:09:00+00:00,307.6514,3.77,12.57,47.84626,-54.09684
2022-01-04 10:19:00+00:00,323.773,3.7,12.57,47.84626,-54.09684
2022-01-04 10:29:00+00:00,336.5213,3.7,12.57,47.84626,-54.09684
2022-01-04 10:39:00+00:00,340.088,3.69,12.57,47.84626,-54.09684
2022-01-04 10:49:00+00:00,351.2663,3.7,12.57,47.84626,-54.09684
2022-01-04 10:59:00+00:00,369.2262,3.7,12.57,47.84626,-54.09684
2022-01-04 11:09:00+00:00,371.8846,3.7,12.57,47.84626,-54.09684
2022-01-04 11:19:00+00:00,369.5447,3.6,12.57,47.84626,-54.09684
2022-01-04 11:29:00+00:00,386.6362,3.6,12.57,47.84626,-54.09684
2022-01-04 11:39:00+00:00,399.9913,3.6,12.57,47.84626,-54.09684
2022-01-04 11:49:00+00:00,390.4512,3.6,12.57,47.84626,-54.09684
2022-01-04 11:59:00+00:00,383.4746,3.6,12.57,47.84626,-54.09684
2022-01-04 12:09:00+00:00,392.8563,3.6,12.57,47.84626,-54.09684
2022-01-04 12:19:00+00:00,398.2795,3.57,12.57,47.84626,-54.09684
2022-01-04 12:29:00+00:00,390.7579,3.58,12.57,47.84626,-54.09684
2022-01-04 12:39:00+00:00,394.3312,3.6,12.57,47.84626,-54.09684
2022-01-04 12:49:00+00:00,409.4479,3.5,12.57,47.84626,-54.09684
2022-01-04 12:59:00+00:00,399.4363,3.27,12.57,47.84626,-54.09684
2022-01-04 13:09:00+00:00,384.9963,3.6,12.57,47.84626,-54.09684
2022-01-04 13:19:00+00:00,392.8445,3.16,12.57,47.84626,-54.09684
2022-01-04 13:29:00+00:00,399.5163,3.51,12.57,47.84626,-54.09684
2022-01-04 13:39:00+00:00,393.4295,3.7,12.57,47.84626,-54.09684
2022-01-04 13:49:00+00:00,408.2062,3.69,12.57,47.84626,-54.09684
2022-01-04 13:59:00+00:00,410.8846,3.7,12.57,47.84626,-54.09684
2022-01-04 14:09:00+00:00,387.5812,3.7,12.57,47.84626,-54.09684
2022-01-04 14:19:00+00:00,368.7596,3.66,12.65,47.84626,-54.09684
2022-01-04 14:29:00+00:00,363.9512,3.42,12.65,47.84626,-54.09684
2022-01-04 14:39:00+00:00,359.1263,3.6,12.65,47.84626,-54.09684
2022-01-04 14:49:00+00:00,362.2279,3.6,12.65,47.84626,-54.09684
2022-01-04 14:59:00+00:00,366.2396,3.5,12.65,47.84626,-54.09684
2022-01-04 15:09:00+00:00,359.9247,3.5,12.65,47.84626,-54.09684
2022-01-04 15:19:00+00:00,344.088,3.5,12.65,47.84626,-54.09684
2022-01-04 15:29:00+00:00,346.5013,3.5,12.65,47.84626,-54.09684
2022-01-04 15:39:00+00:00,337.343,3.4,12.65,47.84626,-54.09684
2022-01-04 15:49:00+00:00,317.9347,3.5,12.65,47.84626,-54.09684
2022-01-04 15:59:00+00:00,306.188,3.49,12.65,47.84626,-54.09684
2022-01-04 16:09:00+00:00,306.108,2.9,12.65,47.84626,-54.09684
2022-01-04 16:19:00+00:00,287.0413,2.88,12.65,47.84626,-54.09684
2022-01-04 16:29:00+00:00,269.2014,2.62,12.65,47.84626,-54.09684
2022-01-04 16:39:00+00:00,271.8031,2.13,12.65,47.84626,-54.09684
2022-01-04 16:49:00+00:00,261.0914,2.38,12.65,47.84626,-54.09684
2022-01-04 16:59:00+00:00,233.6831,2.84,12.65,47.84626,-54.09684
2022-01-04 17:09:00+00:00,226.5331,3.0,12.65,47.84626,-54.09684
2022-01-04 17:19:00+00:00,232.5564,3.03,12.57,47.84626,-54.09684
2022-01-04 17:29:00+00:00,219.5514,2.83,12.57,47.84626,-54.09684
2022-01-04 17:39:00+00:00,202.3231,2.79,12.57,47.84626,-54.09684
2022-01-04 17:49:00+00:00,206.4748,2.88,12.57,47.84626,-54.09684
2022-01-04 17:59:00+00:00,211.2131,2.86,12.57,47.84626,-54.09684
2022-01-04 18:09:00+00:00,193.2948,2.24,12.57,47.84626,-54.09684
2022-01-04 18:19:00+00:00,184.1714,2.4,12.57,47.84626,-54.09684
2022-01-04 18:29:00+00:00,193.6464,2.58,12.57,47.84626,-54.09684
2022-01-04 18:39:00+00:00,198.8081,2.33,12.57,47.84626,-54.09684
2022-01-04 18:49:00+00:00,198.3698,3.2,12.57,47.84626,-54.09684
2022-01-04 18:59:00+00:00,195.3564,2.81,12.57,47.84626,-54.09684
2022-01-04 19:09:00+00:00,192.7481,2.74,12.57,47.84626,-54.09684
2022-01-04 19:19:01+00:00,197.7681,2.7,12.49,47.84626,-54.09684
2022-01-04 19:29:01+00:00,192.2798,2.56,12.49,47.84626,-54.09684
2022-01-04 19:39:01+00:00,198.1464,2.23,12.49,47.84626,-54.09684
2022-01-04 19:49:01+00:00,210.1148,3.38,12.49,47.84626,-54.09684
2022-01-04 19:59:01+00:00,203.4581,3.5,12.49,47.84626,-54.09684
2022-01-04 20:09:01+00:00,200.2448,3.24,12.49,47.84626,-54.09684
2022-01-04 20:19:00+00:00,203.9548,3.0,12.49,47.84626,-54.09684
2022-01-04 20:29:00+00:00,201.8665,2.7,12.49,47.84626,-54.09684
2022-01-04 20:39:00+00:00,203.9281,2.89,12.49,47.84626,-54.09684
2022-01-04 20:49:00+00:00,219.3465,3.38,12.49,47.84626,-54.09684
2022-01-04 20:59:00+00:00,222.0681,3.21,12.49,47.84626,-54.09684
2022-01-04 21:09:00+00:00,221.9814,2.9,12.49,47.84626,-54.09684
2022-01-04 21:19:00+00:00,230.9398,3.26,12.49,47.84626,-54.09684
2022-01-04 21:29:00+00:00,242.0914,3.27,12.49,47.84626,-54.09684
2022-01-04 21:39:00+00:00,250.5831,3.1,12.49,47.84626,-54.09684
2022-01-04 21:49:00+00:00,248.5164,3.24,12.49,47.84626,-54.09684
2022-01-04 21:59:00+00:00,248.4514,3.3,12.49,47.84626,-54.09684
2022-01-04 22:09:00+00:00,259.4514,3.4,12.49,47.84626,-54.09684
2022-01-04 22:19:00+00:00,275.8964,3.02,12.49,47.84626,-54.09684
2022-01-04 22:29:00+00:00,278.4231,3.39,12.49,47.84626,-54.09684
2022-01-04 22:39:00+00:00,275.5214,3.13,12.49,47.84626,-54.09684
2022-01-04 22:49:00+00:00,293.9464,3.59,12.49,47.84626,-54.09684
2022-01-04 22:59:00+00:00,309.0697,3.5,12.49,47.84626,-54.09684
2022-01-04 23:09:00+00:00,301.533,3.38,12.49,47.84626,-54.09684
2022-01-04 23:19:01+00:00,303.0114,3.46,12.49,47.84626,-54.09684
2022-01-04 23:29:01+00:00,319.5063,3.5,12.49,47.84626,-54.09684
2022-01-04 23:39:01+00:00,329.7596,3.4,12.49,47.84626,-54.09684
2022-01-04 23:49:01+00:00,325.343,3.34,12.49,47.84626,-54.09684
2022-01-04 23:59:01+00:00,330.2297,3.4,12.49,47.84626,-54.09684
